Flag for Maldives Weather past 2 weeks in Male, Maldives

Now
84 °F

Passing clouds.


Feels Like: 94 °F
Forecast: 82 / 89 °F
Wind: 6 mph from Northeast

Location: Male Airport

Current Time: Mar 6, 2015 at 9:12:32 PM

Latest Report: Mar 6, 2015 at 8:00 PM


Visibility: N/A

Pressure: 29.95 "Hg

Humidity: 79%

Dew point: 77 °F

Location of MaleLocation

Historic Weather in Male — Graph

°F

Male temperature yesterday

Maximum temperature yesterday: 88 °F (at 10:00 AM)
Minimum temperature yesterday: 82 °F (at 12:00 AM)
Average temperature yesterday: 85 °F

Past Weeks' High & Low Weather Summary

 TemperatureHumidityPressure
High90 °F (Mar 6, 2:00 PM)89% (Feb 25, 2:00 AM)29.95 "Hg (Feb 25, 2:00 AM)
Low79 °F (Feb 27, 4:00 AM)59% (Feb 20, 12:00 PM)29.53 "Hg (Feb 25, 2:00 PM)
Average84 °F72%29.86 "Hg
* Reported Feb 19 7:00 PM — Mar 6 7:00 PM, Male, Weather by CustomWeather, © 2015

Note: Actual official high and low records may vary slightly from our data, if they occured in-between our weather recording intervals... More about our weather records

Advertising

Male weather history for previous 24 hours

 ConditionsComfort  
Time TempWeatherWind HumidityBarometerVisibility
7:00 PM
Fri, Mar 6
84 °FPassing clouds.6 mph79%29.92 "HgN/A
6:00 PM86 °FScattered clouds.7 mph75%29.89 "HgN/A
5:00 PM86 °FScattered clouds.6 mph75%29.86 "HgN/A
4:00 PM88 °FPassing clouds.9 mph70%29.86 "HgN/A
3:00 PM88 °FPassing clouds.7 mph66%29.86 "HgN/A
2:00 PM90 °FPassing clouds.6 mph67%29.89 "HgN/A
1:00 PM88 °FScattered clouds.6 mph70%29.92 "HgN/A
12:00 PM88 °FScattered clouds.8 mph75%29.95 "HgN/A
11:00 AM88 °FPassing clouds.8 mph70%29.95 "HgN/A
10:00 AM88 °FPassing clouds.8 mph70%29.95 "HgN/A
9:00 AM86 °FPassing clouds.7 mph75%29.95 "HgN/A
8:00 AM84 °FPassing clouds.7 mph79%29.92 "HgN/A
7:00 AM84 °FScattered clouds.7 mph79%29.92 "HgN/A
6:00 AM82 °FPassing clouds.8 mph84%29.89 "HgN/A
5:00 AM82 °FPassing clouds.7 mph79%29.86 "HgN/A
4:00 AM82 °FPassing clouds.7 mph79%29.86 "HgN/A
3:00 AM82 °FPassing clouds.8 mph79%29.86 "HgN/A
2:00 AM82 °FPassing clouds.8 mph79%29.86 "HgN/A
1:00 AM82 °FPassing clouds.9 mph79%29.89 "HgN/A
12:00 AM84 °FPassing clouds.10 mph74%29.92 "HgN/A
11:00 PM
Thu, Mar 5
84 °FPassing clouds.10 mph74%29.92 "HgN/A
10:00 PM84 °FPassing clouds.9 mph74%29.92 "HgN/A
9:00 PM84 °FPassing clouds.8 mph74%29.92 "HgN/A
Weather by CustomWeather, © 2015

See weather overviewHow to use our weather pages